Regional Weather Roundup
Issued by NWS

Home | Current Version | Previous Version | Graphics & Text | Print | Product List | Glossary On
Versions: 1 2 3 4 5 6 7 8 9 10 11 12 13 14 15 16 17 18 19 20 21 22 23 24 25 26 27 28 29 30 31 32 33 34 35 36 37 38 39 40 41 42 43 44 45 46 47 48 49 50
000
ASUS45 KBOI 220010
RWRID
WEATHER ROUNDUP FOR IDAHO
NATIONAL WEATHER SERVICE BOISE ID
500 PM MST SUN DEC 21 2014

NOTE: "FAIR" INDICATES FEW OR NO CLOUDS BELOW 12000 FEET
WITH NO SIGNIFICANT WEATHER AND/OR OBSTRUCTIONS TO VISIBILITY

IDZ012-014-220100-
SOUTHWEST IDAHO


CITY           SKY/WX    TMP DP  RH WIND       PRES   REMARKS
BOISE          LGT RAIN  43  40  89 NW12      30.05R
CALDWELL       CLOUDY    45  36  70 W10       30.07R
MOUNTAIN HOME  LGT RAIN  42  38  86 NW24G31   30.04R
$$

IDZ016-017-220100-
SOUTHCENTRAL IDAHO


CITY           SKY/WX    TMP DP  RH WIND       PRES   REMARKS
BURLEY         LGT RAIN  42  38  85 W21G28    29.93R
JEROME         LGT RAIN  39  38  96 SW24G31   29.97R WCI  28
TWIN FALLS     LGT RAIN  42  37  82 W24G36    29.99R
$$

IDZ019>023-220100-
SOUTHEAST IDAHO


CITY           SKY/WX    TMP DP  RH WIND       PRES   REMARKS
IDAHO FALLS    MOCLDY    42  34  73 W10       29.81R
POCATELLO      MOCLDY    42  38  85 W21G29    29.86R
REXBURG        MOCLDY    39  34  82 W7        29.80R WCI  34
$$

IDZ006-010-011-018-031-032-220100-
CENTRAL IDAHO MOUNTAINS


CITY           SKY/WX    TMP DP  RH WIND       PRES   REMARKS
MCCALL         CLOUDY    34  31  88 NW6       29.95R WCI  29
HAILEY         MOCLDY    39  34  81 NW8       29.87R WCI  34
STANLEY          N/A     32  26  78 NW10      29.93R WCI  24
SALMON         MOCLDY    43  25  49 W10       29.83R
CHALLIS        CLOUDY    39  24  55 NW10      29.85R WCI  32
$$

IDZ002-004-006-007-026-220100-
NORTHERN IDAHO


CITY           SKY/WX    TMP DP  RH WIND       PRES   REMARKS
LEWISTON       MOCLDY    51  36  56 W9        29.93R
LOWELL           N/A     44  43  96 VRB3      29.94R
COEUR D`ALENE  CLOUDY    43  36  75 SW6       29.84S
MULLAN PASS      N/A     28  27  96 NW9       29.79R WCI  19
$$



USA.gov is the U.S. government's official web portal to all federal, state and local government web resources and services.